Iridium Next SV173

operational
NORAD ID: 43925 Int'l Des: 2019-002 Owner: IRIDS Country: US Constellation: Iridium NEXT
LEOCIRCULARPOLAR

关于 Iridium Next SV173

正在加载描述...

实时位置

正在加载3D地球...

即将过境

高度历史

Altitude vs Time

uPlot chart will show altitude changes over time

两行轨道根数

1 43925U 19002D 25303.92734826 .00000327 00000-0 10986-3 0 9998
2 43925 86.3930 89.4106 0002155 87.5371 272.6071 14.34218441356096
Epoch: Oct 30, 2025 • Age: 19 hours

当前状态

高度 788.8 km
速度 7.47 km/s
星下点 72.77°N, 40.42°W
发射日期 Jan 11, 2019
运行时间 6.8 years
类型 communications

技术详情

分类 Payload
质量 860.00 kg
干质量 700.00 kg
总质量 860.00 kg
长度 3.10 m
直径 1.50 m
跨度 9.40 m
形状 Half Hex Prism+2 pan
制造商 NGISGA
平台类型 EliteBus
阶段状态 In Orbit
所有者/国家 IRIDS/US

大型星座

Loading constellations...